SPNEU EPDE-EPKK

Flight info

Callsign SPNEU
Flight time 2h 3m
Altitude 9000
Route DCT ROMEG DCT KUKAM DCT KAK STAY1/0045 KAK VFR
Aircraft DA42/L-SBDFGRY/S

Departure

Time 2026-05-07 15:50
Airport Deblin Military Air Base (EPDE)

Arrival

Time 2026-05-07 17:53
Airport Kraków John Paul II International Airport (EPKK)
Time Latitude Longitude Altitude Speed Heading
2026-05-07 15:36 51.55594 21.86876 379 ft 0 kts 351°
2026-05-07 15:44 51.55620 21.86882 381 ft 9 kts 51°
2026-05-07 15:44 51.55633 21.87019 379 ft 5 kts 80°
2026-05-07 15:44 51.55634 21.87032 379 ft 6 kts 78°
2026-05-07 15:44 51.55616 21.87180 379 ft 19 kts 123°
2026-05-07 15:45 51.55536 21.87398 379 ft 25 kts 120°
2026-05-07 15:45 51.55444 21.87644 379 ft 26 kts 121°
2026-05-07 15:45 51.55343 21.87918 379 ft 30 kts 121°
2026-05-07 15:45 51.55229 21.88223 379 ft 33 kts 120°
2026-05-07 15:46 51.55029 21.88762 379 ft 27 kts 121°
2026-05-07 15:46 51.54925 21.89041 379 ft 31 kts 121°
2026-05-07 15:46 51.54819 21.89328 379 ft 30 kts 121°
2026-05-07 15:47 51.54763 21.89545 379 ft 15 kts 43°
2026-05-07 15:47 51.54858 21.89636 379 ft 3 kts 31°
2026-05-07 15:48 51.54901 21.89674 378 ft 15 kts 10°
2026-05-07 15:48 51.54950 21.89646 377 ft 0 kts 302°
2026-05-07 15:49 51.55028 21.89438 377 ft 53 kts 300°
2026-05-07 15:49 51.55282 21.88748 499 ft 79 kts 300°
2026-05-07 15:49 51.55572 21.87962 807 ft 83 kts 300°
2026-05-07 15:50 51.55878 21.87157 1156 ft 87 kts 302°
2026-05-07 15:50 51.56210 21.86293 1455 ft 97 kts 301°
2026-05-07 15:50 51.56595 21.85323 1701 ft 107 kts 303°
2026-05-07 15:50 51.57003 21.84270 1958 ft 115 kts 301°
2026-05-07 15:51 51.57427 21.83163 2209 ft 117 kts 301°
2026-05-07 15:51 51.57549 21.81892 2542 ft 118 kts 264°
2026-05-07 15:51 51.57403 21.80602 2896 ft 116 kts 261°
2026-05-07 15:51 51.57265 21.79349 3257 ft 113 kts 262°
2026-05-07 15:52 51.57138 21.78111 3600 ft 112 kts 262°
2026-05-07 15:52 51.57017 21.76884 3949 ft 110 kts 262°
2026-05-07 15:52 51.56899 21.75680 4302 ft 108 kts 262°
2026-05-07 15:52 51.56783 21.74501 4661 ft 106 kts 261°
2026-05-07 15:53 51.56707 21.73727 4895 ft 105 kts 261°
2026-05-07 15:53 51.56563 21.72255 5328 ft 105 kts 261°
2026-05-07 15:53 51.56451 21.71104 5676 ft 103 kts 261°
2026-05-07 15:53 51.56340 21.69971 6029 ft 102 kts 261°
2026-05-07 15:54 51.56230 21.68849 6387 ft 102 kts 261°
2026-05-07 15:54 51.56121 21.67729 6720 ft 101 kts 261°
2026-05-07 15:54 51.56012 21.66614 7061 ft 101 kts 261°
2026-05-07 15:54 51.55904 21.65515 7397 ft 101 kts 260°
2026-05-07 15:55 51.55795 21.64403 7742 ft 101 kts 260°
2026-05-07 15:55 51.55684 21.63275 8099 ft 101 kts 260°
2026-05-07 15:55 51.55575 21.62162 8446 ft 101 kts 260°
2026-05-07 15:55 51.55466 21.61061 8804 ft 101 kts 260°
2026-05-07 15:56 51.55350 21.59876 8942 ft 120 kts 260°
2026-05-07 15:56 51.55210 21.58435 8950 ft 140 kts 260°
2026-05-07 15:56 51.55052 21.56821 8953 ft 152 kts 260°
2026-05-07 15:56 51.54881 21.55103 8954 ft 159 kts 259°
2026-05-07 15:57 51.54516 21.53414 8943 ft 163 kts 241°
2026-05-07 15:57 51.53842 21.51938 8943 ft 165 kts 233°
2026-05-07 15:57 51.53132 21.50485 8943 ft 166 kts 233°
2026-05-07 15:57 51.52419 21.49028 8937 ft 166 kts 233°
2026-05-07 15:58 51.51704 21.47565 8944 ft 167 kts 233°
2026-05-07 15:58 51.50988 21.46102 8944 ft 167 kts 233°
2026-05-07 15:58 51.50273 21.44640 8940 ft 166 kts 233°
2026-05-07 15:58 51.49558 21.43180 8942 ft 166 kts 233°
2026-05-07 15:59 51.48844 21.41721 8939 ft 166 kts 233°
2026-05-07 15:59 51.48153 21.40311 8939 ft 166 kts 233°
2026-05-07 15:59 51.47657 21.39299 8935 ft 166 kts 233°
2026-05-07 15:59 51.46942 21.37842 8938 ft 166 kts 233°
2026-05-07 16:00 51.46227 21.36382 8938 ft 166 kts 233°
2026-05-07 16:00 51.45511 21.34925 8936 ft 167 kts 233°
2026-05-07 16:00 51.44794 21.33468 8938 ft 167 kts 233°
2026-05-07 16:00 51.44076 21.32008 8935 ft 167 kts 233°
2026-05-07 16:01 51.43360 21.30551 8937 ft 167 kts 233°
2026-05-07 16:01 51.42643 21.29093 8935 ft 166 kts 232°
2026-05-07 16:01 51.41926 21.27638 8934 ft 166 kts 233°
2026-05-07 16:01 51.41210 21.26185 8934 ft 166 kts 233°
2026-05-07 16:02 51.40494 21.24731 8929 ft 166 kts 232°
2026-05-07 16:02 51.39777 21.23278 8936 ft 166 kts 232°
2026-05-07 16:02 51.39060 21.21825 8933 ft 166 kts 232°
2026-05-07 16:02 51.38343 21.20373 8932 ft 166 kts 232°
2026-05-07 16:03 51.37626 21.18923 8934 ft 166 kts 232°
2026-05-07 16:03 51.36908 21.17470 8935 ft 166 kts 232°
2026-05-07 16:03 51.36190 21.16016 8931 ft 167 kts 232°
2026-05-07 16:03 51.35469 21.14560 8934 ft 167 kts 233°
2026-05-07 16:04 51.34749 21.13105 8934 ft 167 kts 232°
2026-05-07 16:04 51.34029 21.11654 8930 ft 166 kts 232°
2026-05-07 16:04 51.33309 21.10201 8936 ft 167 kts 232°
2026-05-07 16:04 51.32588 21.08749 8943 ft 167 kts 232°
2026-05-07 16:05 51.31868 21.07297 8945 ft 167 kts 232°
2026-05-07 16:05 51.31148 21.05847 8941 ft 167 kts 232°
2026-05-07 16:05 51.30427 21.04396 8944 ft 167 kts 233°
2026-05-07 16:05 51.29704 21.02941 8942 ft 167 kts 233°
2026-05-07 16:06 51.28980 21.01485 8942 ft 167 kts 232°
2026-05-07 16:06 51.28258 21.00034 8950 ft 167 kts 232°
2026-05-07 16:06 51.27534 20.98583 8951 ft 167 kts 232°
2026-05-07 16:06 51.26822 20.97154 8955 ft 167 kts 232°
2026-05-07 16:07 51.26100 20.95706 8947 ft 167 kts 233°
2026-05-07 16:07 51.25379 20.94261 8953 ft 166 kts 232°
2026-05-07 16:07 51.24660 20.92819 8951 ft 166 kts 232°
2026-05-07 16:07 51.23938 20.91374 8953 ft 167 kts 232°
2026-05-07 16:08 51.23214 20.89925 8957 ft 166 kts 232°
2026-05-07 16:08 51.22492 20.88479 8960 ft 166 kts 232°
2026-05-07 16:08 51.21769 20.87035 8960 ft 167 kts 232°
2026-05-07 16:08 51.21046 20.85591 8964 ft 166 kts 232°
2026-05-07 16:09 51.20324 20.84149 8960 ft 166 kts 232°
2026-05-07 16:09 51.19603 20.82709 8964 ft 166 kts 232°
2026-05-07 16:09 51.18881 20.81268 8966 ft 166 kts 232°
2026-05-07 16:09 51.18158 20.79828 8968 ft 166 kts 232°
2026-05-07 16:10 51.17436 20.78390 8969 ft 166 kts 232°
2026-05-07 16:10 51.16714 20.76951 8972 ft 166 kts 232°
2026-05-07 16:10 51.15994 20.75518 8973 ft 166 kts 232°
2026-05-07 16:10 51.15273 20.74082 8968 ft 166 kts 232°
2026-05-07 16:11 51.14548 20.72641 8972 ft 166 kts 232°
2026-05-07 16:11 51.13824 20.71204 8973 ft 166 kts 232°
2026-05-07 16:11 51.13100 20.69766 8971 ft 166 kts 232°
2026-05-07 16:11 51.12377 20.68332 8971 ft 166 kts 232°
2026-05-07 16:12 51.11655 20.66898 8974 ft 166 kts 232°
2026-05-07 16:12 51.10932 20.65465 8971 ft 166 kts 232°
2026-05-07 16:12 51.10210 20.64034 8971 ft 166 kts 232°
2026-05-07 16:12 51.09498 20.62623 8971 ft 166 kts 232°
2026-05-07 16:13 51.08766 20.61176 8971 ft 165 kts 232°
2026-05-07 16:13 51.08054 20.59769 8971 ft 166 kts 232°
2026-05-07 16:13 51.07332 20.58341 8976 ft 166 kts 232°
2026-05-07 16:13 51.06610 20.56914 8973 ft 166 kts 232°
2026-05-07 16:14 51.05888 20.55488 8974 ft 166 kts 232°
2026-05-07 16:14 51.05166 20.54064 8976 ft 165 kts 232°
2026-05-07 16:14 51.04435 20.52621 8974 ft 165 kts 232°
2026-05-07 16:14 51.03722 20.51215 8972 ft 166 kts 232°
2026-05-07 16:15 51.02999 20.49790 8971 ft 166 kts 232°
2026-05-07 16:15 51.02275 20.48366 8976 ft 166 kts 231°
2026-05-07 16:15 51.01553 20.46943 8976 ft 166 kts 232°
2026-05-07 16:15 51.00829 20.45518 8974 ft 166 kts 232°
2026-05-07 16:16 51.00107 20.44098 8973 ft 166 kts 231°
2026-05-07 16:16 50.99384 20.42678 8973 ft 165 kts 231°
2026-05-07 16:16 50.98662 20.41259 8975 ft 166 kts 232°
2026-05-07 16:16 50.97937 20.39837 8975 ft 166 kts 232°
2026-05-07 16:17 50.97212 20.38416 8971 ft 165 kts 232°
2026-05-07 16:17 50.96486 20.36992 8972 ft 166 kts 231°
2026-05-07 16:17 50.95759 20.35567 8973 ft 166 kts 231°
2026-05-07 16:17 50.95031 20.34142 8974 ft 166 kts 231°
2026-05-07 16:18 50.94304 20.32719 8974 ft 166 kts 231°
2026-05-07 16:18 50.93579 20.31299 8974 ft 166 kts 231°
2026-05-07 16:18 50.92853 20.29878 8975 ft 166 kts 231°
2026-05-07 16:18 50.92124 20.28453 8971 ft 166 kts 231°
2026-05-07 16:19 50.91398 20.27036 8975 ft 166 kts 231°
2026-05-07 16:19 50.90671 20.25617 8970 ft 165 kts 231°
2026-05-07 16:19 50.89945 20.24201 8969 ft 166 kts 231°
2026-05-07 16:19 50.89220 20.22787 8967 ft 166 kts 231°
2026-05-07 16:20 50.88496 20.21376 8969 ft 165 kts 231°
2026-05-07 16:20 50.87771 20.19964 8964 ft 165 kts 231°
2026-05-07 16:20 50.87047 20.18555 8973 ft 165 kts 231°
2026-05-07 16:20 50.86323 20.17145 8973 ft 165 kts 231°
2026-05-07 16:21 50.85598 20.15735 8972 ft 166 kts 231°
2026-05-07 16:21 50.84870 20.14322 8975 ft 166 kts 231°
2026-05-07 16:21 50.84143 20.12908 8967 ft 166 kts 231°
2026-05-07 16:21 50.83414 20.11493 8967 ft 166 kts 231°
2026-05-07 16:22 50.82686 20.10080 8970 ft 166 kts 231°
2026-05-07 16:22 50.81958 20.08669 8971 ft 165 kts 231°
2026-05-07 16:22 50.81192 20.07317 8966 ft 166 kts 222°
2026-05-07 16:22 50.80208 20.06372 8962 ft 167 kts 204°
2026-05-07 16:23 50.79067 20.05982 8960 ft 170 kts 186°
2026-05-07 16:23 50.77884 20.05919 8961 ft 170 kts 186°
2026-05-07 16:23 50.76702 20.05866 8957 ft 170 kts 185°
2026-05-07 16:23 50.75522 20.05811 8962 ft 170 kts 185°
2026-05-07 16:24 50.74344 20.05757 8960 ft 169 kts 185°
2026-05-07 16:24 50.73164 20.05701 8961 ft 170 kts 185°
2026-05-07 16:24 50.71984 20.05645 8957 ft 170 kts 186°
2026-05-07 16:24 50.70804 20.05599 8961 ft 170 kts 184°
2026-05-07 16:25 50.69617 20.05660 8961 ft 171 kts 181°
2026-05-07 16:25 50.68447 20.05747 8960 ft 171 kts 181°
2026-05-07 16:25 50.67244 20.05826 8960 ft 170 kts 182°
2026-05-07 16:25 50.66076 20.05897 8960 ft 170 kts 182°
2026-05-07 16:26 50.64891 20.05968 8955 ft 170 kts 182°
2026-05-07 16:26 50.63691 20.06040 8956 ft 170 kts 182°
2026-05-07 16:26 50.62507 20.06112 8959 ft 170 kts 182°
2026-05-07 16:26 50.61723 20.06159 8957 ft 170 kts 182°
2026-05-07 16:27 50.60140 20.06254 8957 ft 170 kts 182°
2026-05-07 16:27 50.58962 20.06325 8955 ft 170 kts 182°
2026-05-07 16:27 50.57782 20.06395 8960 ft 170 kts 182°
2026-05-07 16:27 50.56620 20.06465 8956 ft 169 kts 182°
2026-05-07 16:28 50.55442 20.06536 8929 ft 171 kts 181°
2026-05-07 16:28 50.54228 20.06605 8657 ft 176 kts 182°
2026-05-07 16:28 50.52999 20.06676 8382 ft 178 kts 182°
2026-05-07 16:28 50.51762 20.06752 8099 ft 177 kts 181°
2026-05-07 16:29 50.50548 20.06827 7825 ft 172 kts 181°
2026-05-07 16:29 50.49357 20.06900 7559 ft 172 kts 181°
2026-05-07 16:29 50.48151 20.06973 7284 ft 174 kts 181°
2026-05-07 16:29 50.46936 20.07045 7031 ft 174 kts 181°
2026-05-07 16:30 50.45728 20.07118 6801 ft 174 kts 181°
2026-05-07 16:30 50.44517 20.07190 6552 ft 175 kts 181°
2026-05-07 16:30 50.43301 20.07262 6308 ft 175 kts 181°
2026-05-07 16:30 50.42083 20.07335 6056 ft 175 kts 181°
2026-05-07 16:31 50.40868 20.07407 5769 ft 174 kts 181°
2026-05-07 16:31 50.39662 20.07478 5445 ft 173 kts 181°
2026-05-07 16:31 50.38455 20.07551 5127 ft 174 kts 181°
2026-05-07 16:31 50.37248 20.07623 4805 ft 174 kts 181°
2026-05-07 16:32 50.36044 20.07693 4480 ft 173 kts 181°
2026-05-07 16:32 50.34835 20.07767 4149 ft 176 kts 181°
2026-05-07 16:32 50.33621 20.07841 4031 ft 169 kts 181°
2026-05-07 16:32 50.32449 20.07915 4026 ft 168 kts 181°
2026-05-07 16:33 50.31277 20.07985 4026 ft 169 kts 181°
2026-05-07 16:33 50.30105 20.08050 4024 ft 168 kts 181°
2026-05-07 16:33 50.28949 20.08119 4023 ft 164 kts 181°
2026-05-07 16:33 50.27803 20.08188 4024 ft 165 kts 181°
2026-05-07 16:34 50.26660 20.08256 4024 ft 164 kts 181°
2026-05-07 16:34 50.25568 20.08319 4024 ft 164 kts 181°
2026-05-07 16:34 50.24427 20.08384 4026 ft 165 kts 181°
2026-05-07 16:34 50.23278 20.08455 4026 ft 166 kts 181°
2026-05-07 16:35 50.22124 20.08523 4024 ft 166 kts 182°
2026-05-07 16:35 50.20967 20.08590 4026 ft 167 kts 181°
2026-05-07 16:35 50.19814 20.08658 4013 ft 165 kts 181°
2026-05-07 16:35 50.18668 20.08724 4008 ft 166 kts 181°
2026-05-07 16:36 50.17517 20.08793 4006 ft 166 kts 181°
2026-05-07 16:36 50.16353 20.08864 4002 ft 167 kts 181°
2026-05-07 16:36 50.15205 20.08929 4006 ft 163 kts 181°
2026-05-07 16:36 50.14068 20.08956 3999 ft 163 kts 189°
2026-05-07 16:37 50.13005 20.08461 4002 ft 159 kts 210°
2026-05-07 16:37 50.12134 20.07395 3903 ft 162 kts 230°
2026-05-07 16:37 50.11592 20.05950 3765 ft 155 kts 249°
2026-05-07 16:37 50.11335 20.04299 3615 ft 158 kts 256°
2026-05-07 16:38 50.11115 20.02671 3464 ft 145 kts 256°
2026-05-07 16:38 50.10916 20.01197 3339 ft 137 kts 257°
2026-05-07 16:38 50.10715 19.99747 3212 ft 137 kts 257°
2026-05-07 16:38 50.10510 19.98261 3076 ft 145 kts 256°
2026-05-07 16:39 50.10294 19.96718 2990 ft 149 kts 256°
2026-05-07 16:39 50.10079 19.95138 2806 ft 149 kts 256°
2026-05-07 16:39 50.09868 19.93590 2611 ft 139 kts 256°
2026-05-07 16:39 50.09682 19.92227 2444 ft 121 kts 256°
2026-05-07 16:40 50.09509 19.90995 2292 ft 113 kts 257°
2026-05-07 16:40 50.09347 19.89822 2145 ft 110 kts 255°
2026-05-07 16:40 50.09185 19.88660 1989 ft 107 kts 255°
2026-05-07 16:40 50.09033 19.87550 1829 ft 103 kts 255°
2026-05-07 16:41 50.08887 19.86495 1706 ft 92 kts 255°
2026-05-07 16:41 50.08754 19.85547 1538 ft 88 kts 255°
2026-05-07 16:41 50.08618 19.84587 1415 ft 94 kts 255°
2026-05-07 16:41 50.08483 19.83593 1287 ft 94 kts 255°
2026-05-07 16:42 50.08349 19.82587 1178 ft 96 kts 254°
2026-05-07 16:42 50.08205 19.81568 1053 ft 97 kts 255°
2026-05-07 16:42 50.08063 19.80544 922 ft 96 kts 256°
2026-05-07 16:42 50.07920 19.79528 797 ft 92 kts 256°
2026-05-07 16:43 50.07799 19.78657 827 ft 89 kts 252°
2026-05-07 16:43 50.07678 19.77741 1211 ft 83 kts 251°
2026-05-07 16:43 50.07534 19.76729 1308 ft 116 kts 256°
2026-05-07 16:43 50.07387 19.75437 1505 ft 122 kts 258°
2026-05-07 16:44 50.07236 19.74143 1876 ft 119 kts 257°
2026-05-07 16:44 50.07088 19.72878 2239 ft 119 kts 257°
2026-05-07 16:44 50.06938 19.71623 2571 ft 117 kts 257°
2026-05-07 16:44 50.06794 19.70373 2879 ft 116 kts 259°
2026-05-07 16:45 50.06648 19.69157 3210 ft 114 kts 258°
2026-05-07 16:45 50.06512 19.67944 3533 ft 114 kts 258°
2026-05-07 16:45 50.06384 19.66733 3852 ft 113 kts 258°
2026-05-07 16:45 50.06256 19.65531 4178 ft 113 kts 256°
2026-05-07 16:46 50.06156 19.64715 4400 ft 114 kts 255°
2026-05-07 16:46 50.05944 19.63089 4837 ft 116 kts 255°
2026-05-07 16:46 50.05837 19.62250 5001 ft 122 kts 255°
2026-05-07 16:46 50.05657 19.60867 4990 ft 141 kts 255°
2026-05-07 16:47 50.05453 19.59315 4993 ft 151 kts 256°
2026-05-07 16:47 50.05235 19.57669 4989 ft 156 kts 255°
2026-05-07 16:47 50.05014 19.56001 5003 ft 159 kts 255°
2026-05-07 16:47 50.04780 19.54302 5000 ft 162 kts 255°
2026-05-07 16:48 50.04548 19.52588 4997 ft 162 kts 255°
2026-05-07 16:48 50.04325 19.50880 4993 ft 161 kts 255°
2026-05-07 16:48 50.04100 19.49166 5001 ft 162 kts 255°
2026-05-07 16:48 50.03869 19.47451 5004 ft 162 kts 255°
2026-05-07 16:49 50.03683 19.45726 4994 ft 164 kts 266°
2026-05-07 16:49 50.04104 19.44054 4991 ft 174 kts 305°
2026-05-07 16:49 50.05165 19.43088 5004 ft 184 kts 343°
2026-05-07 16:49 50.06451 19.43277 5013 ft 191 kts 19°
2026-05-07 16:50 50.07663 19.44131 5011 ft 192 kts 25°
2026-05-07 16:50 50.08860 19.45065 5007 ft 192 kts 26°
2026-05-07 16:50 50.10052 19.46006 5004 ft 192 kts 26°
2026-05-07 16:50 50.11242 19.46951 5009 ft 192 kts 26°
2026-05-07 16:51 50.12434 19.47909 5004 ft 192 kts 26°
2026-05-07 16:51 50.13607 19.48846 5000 ft 192 kts 26°
2026-05-07 16:51 50.14810 19.49806 5003 ft 192 kts 26°
2026-05-07 16:51 50.15997 19.50757 5002 ft 191 kts 26°
2026-05-07 16:52 50.17180 19.51701 5008 ft 191 kts 26°
2026-05-07 16:52 50.18366 19.52645 4997 ft 192 kts 26°
2026-05-07 16:52 50.19550 19.53590 5005 ft 191 kts 26°
2026-05-07 16:52 50.20714 19.54586 4999 ft 191 kts 36°
2026-05-07 16:53 50.21473 19.56238 5005 ft 189 kts 73°
2026-05-07 16:53 50.21819 19.58207 5002 ft 187 kts 80°
2026-05-07 16:53 50.22098 19.60183 5003 ft 187 kts 81°
2026-05-07 16:53 50.22368 19.62172 5003 ft 187 kts 81°
2026-05-07 16:54 50.22644 19.64155 5004 ft 187 kts 81°
2026-05-07 16:54 50.22920 19.66138 5002 ft 186 kts 81°
2026-05-07 16:54 50.23197 19.68114 5005 ft 186 kts 81°
2026-05-07 16:54 50.23471 19.70092 5003 ft 186 kts 81°
2026-05-07 16:55 50.23750 19.72072 4998 ft 187 kts 81°
2026-05-07 16:55 50.24032 19.74058 5005 ft 187 kts 81°
2026-05-07 16:55 50.24308 19.76056 5005 ft 189 kts 81°
2026-05-07 16:55 50.24580 19.78051 5002 ft 187 kts 81°
2026-05-07 16:56 50.24854 19.80036 5001 ft 187 kts 81°
2026-05-07 16:56 50.25130 19.82018 5007 ft 187 kts 81°
2026-05-07 16:56 50.25677 19.85985 5009 ft 187 kts 81°
2026-05-07 16:57 50.25949 19.87977 5009 ft 187 kts 81°
2026-05-07 16:57 50.26213 19.89944 5005 ft 188 kts 81°
2026-05-07 16:57 50.26482 19.91966 5010 ft 189 kts 82°
2026-05-07 16:57 50.26763 19.93980 5006 ft 189 kts 81°
2026-05-07 16:58 50.27032 19.95960 5003 ft 188 kts 81°
2026-05-07 16:58 50.27298 19.97989 5008 ft 188 kts 81°
2026-05-07 16:58 50.27554 19.99981 5006 ft 186 kts 81°
2026-05-07 16:58 50.27811 20.01960 5009 ft 186 kts 81°
2026-05-07 16:59 50.28060 20.03921 5015 ft 186 kts 81°
2026-05-07 16:59 50.28316 20.05908 5010 ft 186 kts 81°
2026-05-07 16:59 50.28575 20.07892 5010 ft 187 kts 81°
2026-05-07 16:59 50.28828 20.09882 5019 ft 187 kts 81°
2026-05-07 17:00 50.29084 20.11885 5013 ft 188 kts 81°
2026-05-07 17:00 50.29202 20.13890 5003 ft 184 kts 103°
2026-05-07 17:00 50.28825 20.15774 5020 ft 181 kts 115°
2026-05-07 17:00 50.28363 20.17605 5016 ft 181 kts 116°
2026-05-07 17:01 50.27894 20.19419 5012 ft 180 kts 116°
2026-05-07 17:01 50.27429 20.21233 5017 ft 179 kts 116°
2026-05-07 17:01 50.26968 20.23050 5018 ft 180 kts 116°
2026-05-07 17:01 50.26402 20.24773 5010 ft 176 kts 136°
2026-05-07 17:02 50.25376 20.25667 5013 ft 168 kts 174°
2026-05-07 17:02 50.24251 20.25414 5026 ft 164 kts 202°
2026-05-07 17:02 50.23165 20.24883 5016 ft 164 kts 198°
2026-05-07 17:02 50.22055 20.24442 5014 ft 164 kts 195°
2026-05-07 17:03 50.20939 20.24069 5014 ft 164 kts 194°
2026-05-07 17:03 50.19817 20.23716 5016 ft 165 kts 194°
2026-05-07 17:03 50.18697 20.23362 5006 ft 164 kts 194°
2026-05-07 17:03 50.17584 20.23010 5008 ft 163 kts 194°
2026-05-07 17:04 50.16466 20.22660 5008 ft 164 kts 194°
2026-05-07 17:04 50.15357 20.22260 5006 ft 163 kts 201°
2026-05-07 17:04 50.14387 20.21407 5003 ft 160 kts 220°
2026-05-07 17:04 50.13669 20.20113 5014 ft 159 kts 238°
2026-05-07 17:05 50.13270 20.18514 5015 ft 159 kts 256°
2026-05-07 17:05 50.13041 20.16835 5008 ft 158 kts 256°
2026-05-07 17:05 50.12807 20.15104 4745 ft 168 kts 256°
2026-05-07 17:05 50.12568 20.13324 4500 ft 168 kts 257°
2026-05-07 17:06 50.12327 20.11541 4249 ft 168 kts 256°
2026-05-07 17:06 50.12084 20.09764 4010 ft 167 kts 256°
2026-05-07 17:06 50.11850 20.08062 4008 ft 156 kts 256°
2026-05-07 17:06 50.11628 20.06443 4011 ft 150 kts 256°
2026-05-07 17:07 50.11413 20.04868 4010 ft 148 kts 256°
2026-05-07 17:07 50.11189 20.03239 3845 ft 160 kts 256°
2026-05-07 17:07 50.10952 20.01502 3634 ft 167 kts 256°
2026-05-07 17:07 50.10708 19.99703 3410 ft 170 kts 257°
2026-05-07 17:08 50.10468 19.97928 3195 ft 165 kts 256°
2026-05-07 17:08 50.10236 19.96234 2984 ft 157 kts 256°
2026-05-07 17:08 50.10008 19.94597 2778 ft 155 kts 255°
2026-05-07 17:08 50.09775 19.92931 2568 ft 159 kts 256°
2026-05-07 17:09 50.09545 19.91258 2348 ft 146 kts 257°
2026-05-07 17:09 50.09364 19.89916 2190 ft 117 kts 256°
2026-05-07 17:09 50.09197 19.88725 2014 ft 111 kts 256°
2026-05-07 17:09 50.09032 19.87548 1844 ft 112 kts 254°
2026-05-07 17:10 50.08870 19.86392 1711 ft 101 kts 256°
2026-05-07 17:10 50.08726 19.85346 1523 ft 96 kts 255°
2026-05-07 17:10 50.08583 19.84331 1376 ft 96 kts 255°
2026-05-07 17:10 50.08447 19.83336 1275 ft 91 kts 255°
2026-05-07 17:11 50.08316 19.82363 1161 ft 92 kts 255°
2026-05-07 17:11 50.08184 19.81391 1015 ft 91 kts 252°
2026-05-07 17:11 50.08049 19.80440 905 ft 90 kts 256°
2026-05-07 17:11 50.07917 19.79509 797 ft 80 kts 254°
2026-05-07 17:12 50.07807 19.78705 876 ft 81 kts 254°
2026-05-07 17:12 50.07696 19.77802 1196 ft 85 kts 256°
2026-05-07 17:12 50.07579 19.76837 1514 ft 98 kts 257°
2026-05-07 17:12 50.07427 19.75761 1886 ft 105 kts 256°
2026-05-07 17:13 50.07238 19.74586 2163 ft 114 kts 255°
2026-05-07 17:13 50.07043 19.73369 2463 ft 116 kts 256°
2026-05-07 17:13 50.06854 19.72160 2768 ft 115 kts 255°
2026-05-07 17:13 50.06666 19.70943 3062 ft 116 kts 255°
2026-05-07 17:14 50.06492 19.69728 3357 ft 114 kts 255°
2026-05-07 17:14 50.06321 19.68522 3653 ft 114 kts 256°
2026-05-07 17:14 50.06159 19.67300 3950 ft 116 kts 256°
2026-05-07 17:14 50.06001 19.66065 4252 ft 117 kts 256°
2026-05-07 17:15 50.05846 19.64823 4548 ft 117 kts 256°
2026-05-07 17:15 50.05568 19.63670 4840 ft 115 kts 226°
2026-05-07 17:15 50.04815 19.63210 4990 ft 131 kts 183°
2026-05-07 17:15 50.03929 19.63866 4990 ft 157 kts 140°
2026-05-07 17:16 50.03282 19.65317 4994 ft 167 kts 127°
2026-05-07 17:16 50.02679 19.66893 4992 ft 172 kts 126°
2026-05-07 17:16 50.02068 19.68501 4992 ft 174 kts 126°
2026-05-07 17:16 50.01297 19.69886 4994 ft 167 kts 154°
2026-05-07 17:17 50.00246 19.70590 5002 ft 164 kts 165°
2026-05-07 17:17 49.99166 19.71173 5000 ft 165 kts 166°
2026-05-07 17:17 49.98082 19.71744 5004 ft 165 kts 166°
2026-05-07 17:17 49.96997 19.72312 5000 ft 164 kts 166°
2026-05-07 17:18 49.95913 19.72884 4999 ft 165 kts 166°
2026-05-07 17:18 49.94829 19.73456 5002 ft 164 kts 166°
2026-05-07 17:18 49.93770 19.74121 4988 ft 169 kts 150°
2026-05-07 17:18 49.93079 19.75615 4999 ft 179 kts 112°
2026-05-07 17:19 49.93087 19.77579 5001 ft 188 kts 81°
2026-05-07 17:19 49.93428 19.79549 5002 ft 190 kts 76°
2026-05-07 17:19 49.93799 19.81518 5004 ft 190 kts 76°
2026-05-07 17:19 49.94172 19.83503 4995 ft 191 kts 76°
2026-05-07 17:20 49.94547 19.85487 4998 ft 193 kts 76°
2026-05-07 17:20 49.94917 19.87484 4989 ft 190 kts 76°
2026-05-07 17:20 49.95271 19.89434 5002 ft 187 kts 76°
2026-05-07 17:20 49.95632 19.91376 5002 ft 187 kts 76°
2026-05-07 17:21 49.95995 19.93325 4999 ft 188 kts 76°
2026-05-07 17:21 49.96356 19.95280 5006 ft 188 kts 76°
2026-05-07 17:21 49.96718 19.97240 5005 ft 189 kts 76°
2026-05-07 17:21 49.97081 19.99206 5004 ft 190 kts 76°
2026-05-07 17:22 49.97443 20.01179 5002 ft 190 kts 76°
2026-05-07 17:22 49.97802 20.03132 5000 ft 187 kts 76°
2026-05-07 17:22 49.98162 20.05063 5002 ft 186 kts 76°
2026-05-07 17:22 49.98511 20.06987 5005 ft 185 kts 76°
2026-05-07 17:23 49.98860 20.08914 5007 ft 185 kts 76°
2026-05-07 17:23 49.99209 20.10847 5005 ft 186 kts 76°
2026-05-07 17:23 49.99554 20.12779 5004 ft 185 kts 76°
2026-05-07 17:23 49.99896 20.14708 5005 ft 185 kts 76°
2026-05-07 17:24 50.00283 20.16613 4992 ft 186 kts 63°
2026-05-07 17:24 50.01173 20.17972 5001 ft 184 kts 24°
2026-05-07 17:24 50.02409 20.18240 5002 ft 177 kts 345°
2026-05-07 17:24 50.03437 20.17332 5004 ft 169 kts 310°
2026-05-07 17:25 50.04298 20.16088 5002 ft 172 kts 322°
2026-05-07 17:25 50.05372 20.15128 4753 ft 183 kts 328°
2026-05-07 17:25 50.06495 20.14179 4448 ft 184 kts 327°
2026-05-07 17:25 50.07594 20.13193 4169 ft 180 kts 326°
2026-05-07 17:26 50.08659 20.12207 4013 ft 173 kts 326°
2026-05-07 17:26 50.09685 20.11251 4010 ft 171 kts 326°
2026-05-07 17:26 50.10653 20.10202 4004 ft 168 kts 313°
2026-05-07 17:26 50.11316 20.08748 4001 ft 164 kts 292°
2026-05-07 17:27 50.11592 20.07043 4001 ft 163 kts 272°
2026-05-07 17:27 50.11473 20.05305 3998 ft 161 kts 257°
2026-05-07 17:27 50.11238 20.03571 3850 ft 168 kts 257°
2026-05-07 17:27 50.10994 20.01774 3634 ft 169 kts 257°
2026-05-07 17:28 50.10758 20.00032 3425 ft 159 kts 257°
2026-05-07 17:28 50.10607 19.98935 3293 ft 158 kts 257°
2026-05-07 17:28 50.10368 19.97225 3072 ft 162 kts 257°
2026-05-07 17:28 50.10132 19.95516 2856 ft 162 kts 257°
2026-05-07 17:29 50.09895 19.93795 2637 ft 161 kts 257°
2026-05-07 17:29 50.09665 19.92122 2433 ft 156 kts 257°
2026-05-07 17:29 50.09437 19.90474 2224 ft 158 kts 257°
2026-05-07 17:29 50.09209 19.88822 2008 ft 153 kts 258°
2026-05-07 17:30 50.09006 19.87335 1814 ft 128 kts 256°
2026-05-07 17:30 50.08829 19.86059 1613 ft 109 kts 256°
2026-05-07 17:30 50.08678 19.84990 1460 ft 98 kts 255°
2026-05-07 17:30 50.08536 19.83982 1314 ft 94 kts 255°
2026-05-07 17:31 50.08403 19.83008 1224 ft 90 kts 255°
2026-05-07 17:31 50.08273 19.82068 1130 ft 88 kts 255°
2026-05-07 17:31 50.08145 19.81139 1013 ft 87 kts 255°
2026-05-07 17:31 50.08018 19.80231 878 ft 86 kts 253°
2026-05-07 17:32 50.07894 19.79344 790 ft 71 kts 255°
2026-05-07 17:32 50.07783 19.78544 886 ft 83 kts 254°
2026-05-07 17:32 50.07669 19.77657 1226 ft 85 kts 253°
2026-05-07 17:32 50.07528 19.76677 1511 ft 100 kts 253°
2026-05-07 17:33 50.07228 19.75686 1713 ft 119 kts 213°
2026-05-07 17:33 50.06357 19.75612 1788 ft 137 kts 171°
2026-05-07 17:33 50.05368 19.75890 1774 ft 150 kts 170°
2026-05-07 17:33 50.04588 19.76957 1616 ft 164 kts 107°
2026-05-07 17:34 50.04754 19.78630 1818 ft 155 kts 81°
2026-05-07 17:34 50.04966 19.80283 1866 ft 159 kts 77°
2026-05-07 17:34 50.05229 19.81970 1898 ft 163 kts 78°
2026-05-07 17:34 50.05466 19.83708 1939 ft 164 kts 79°
2026-05-07 17:35 50.05706 19.85413 1971 ft 159 kts 69°
2026-05-07 17:35 50.06088 19.86937 2010 ft 152 kts 102°
2026-05-07 17:35 50.05462 19.88079 2012 ft 142 kts 171°
2026-05-07 17:35 50.04817 19.87220 1939 ft 135 kts 264°
2026-05-07 17:36 50.05250 19.86044 1964 ft 137 kts 329°
2026-05-07 17:36 50.06115 19.86502 1830 ft 146 kts 65°
2026-05-07 17:36 50.06322 19.88029 1725 ft 141 kts 80°
2026-05-07 17:36 50.06498 19.89519 1696 ft 137 kts 81°
2026-05-07 17:37 50.06723 19.90936 1645 ft 142 kts 63°
2026-05-07 17:37 50.07095 19.92306 1710 ft 137 kts 79°
2026-05-07 17:37 50.07239 19.93781 1824 ft 138 kts 85°
2026-05-07 17:37 50.07339 19.95227 1858 ft 129 kts 78°
2026-05-07 17:38 50.07517 19.96550 1911 ft 121 kts 76°
2026-05-07 17:38 50.07722 19.97807 1888 ft 121 kts 71°
2026-05-07 17:38 50.07975 19.99110 1892 ft 130 kts 73°
2026-05-07 17:38 50.08205 20.00460 1894 ft 129 kts 76°
2026-05-07 17:39 50.08539 20.01699 1812 ft 130 kts 38°
2026-05-07 17:39 50.09434 20.01920 1747 ft 138 kts 338°
2026-05-07 17:39 50.10359 20.01432 1863 ft 145 kts 339°
2026-05-07 17:39 50.10981 20.00420 2093 ft 137 kts 258°
2026-05-07 17:40 50.10678 19.98984 2186 ft 143 kts 258°
2026-05-07 17:40 50.10419 19.97437 2176 ft 151 kts 258°
2026-05-07 17:40 50.10207 19.95794 2153 ft 157 kts 257°
2026-05-07 17:40 50.09965 19.94134 2189 ft 158 kts 257°
2026-05-07 17:41 50.09748 19.92455 2235 ft 159 kts 257°
2026-05-07 17:41 50.09472 19.90773 2164 ft 160 kts 257°
2026-05-07 17:41 50.09244 19.89068 2070 ft 161 kts 257°
2026-05-07 17:41 50.08998 19.87363 1840 ft 160 kts 257°
2026-05-07 17:42 50.08813 19.85865 1670 ft 127 kts 257°
2026-05-07 17:42 50.08638 19.84660 1489 ft 102 kts 254°
2026-05-07 17:42 50.08486 19.83610 1334 ft 100 kts 255°
2026-05-07 17:42 50.08347 19.82562 1182 ft 98 kts 250°
2026-05-07 17:43 50.08205 19.81569 1050 ft 89 kts 252°
2026-05-07 17:43 50.08077 19.80629 941 ft 88 kts 253°
2026-05-07 17:43 50.07944 19.79694 820 ft 85 kts 254°
2026-05-07 17:43 50.07838 19.78947 790 ft 74 kts 255°
2026-05-07 17:44 50.07721 19.78065 1015 ft 87 kts 254°
2026-05-07 17:44 50.07595 19.77068 1306 ft 101 kts 256°
2026-05-07 17:44 50.07434 19.75939 1570 ft 115 kts 253°
2026-05-07 17:44 50.06792 19.75211 1654 ft 134 kts 180°
2026-05-07 17:45 50.05839 19.75527 1746 ft 144 kts 167°
2026-05-07 17:45 50.04865 19.75998 1751 ft 153 kts 146°
2026-05-07 17:45 50.04600 19.77517 1802 ft 157 kts 75°
2026-05-07 17:45 50.04853 19.79131 1929 ft 153 kts 76°
2026-05-07 17:46 50.05090 19.80766 1884 ft 156 kts 78°
2026-05-07 17:46 50.05294 19.82400 1890 ft 151 kts 78°
2026-05-07 17:46 50.05514 19.83953 1928 ft 148 kts 77°
2026-05-07 17:46 50.05731 19.85524 1894 ft 149 kts 77°
2026-05-07 17:47 50.06154 19.86930 1830 ft 143 kts 39°
2026-05-07 17:47 50.07078 19.87198 1666 ft 140 kts 346°
2026-05-07 17:47 50.08003 19.86820 1665 ft 135 kts 347°
2026-05-07 17:47 50.08743 19.86282 1720 ft 110 kts 297°
2026-05-07 17:48 50.08697 19.85077 1513 ft 111 kts 257°
2026-05-07 17:48 50.08544 19.84046 1386 ft 95 kts 251°
2026-05-07 17:48 50.08415 19.83059 1272 ft 86 kts 253°
2026-05-07 17:48 50.08280 19.82095 1102 ft 105 kts 253°
2026-05-07 17:49 50.08105 19.80828 980 ft 133 kts 255°
2026-05-07 17:49 50.07898 19.79332 881 ft 142 kts 254°
2026-05-07 17:49 50.07698 19.77845 914 ft 142 kts 256°
2026-05-07 17:49 50.07629 19.77342 1015 ft 132 kts 254°
2026-05-07 17:50 50.07257 19.75097 1519 ft 133 kts 240°
2026-05-07 17:50 50.06459 19.74669 1677 ft 130 kts 162°
2026-05-07 17:50 50.05536 19.75056 1631 ft 139 kts 164°
2026-05-07 17:50 50.04623 19.75569 1643 ft 141 kts 142°
2026-05-07 17:51 50.04437 19.76979 1632 ft 145 kts 74°
2026-05-07 17:51 50.04690 19.78491 1643 ft 148 kts 77°
2026-05-07 17:51 50.04973 19.80050 1609 ft 152 kts 75°
2026-05-07 17:51 50.05269 19.81644 1675 ft 151 kts 76°
2026-05-07 17:52 50.05732 19.83034 1669 ft 144 kts 31°
2026-05-07 17:52 50.06612 19.83199 1595 ft 116 kts 350°
2026-05-07 17:52 50.07303 19.82847 1467 ft 97 kts 342°
2026-05-07 17:52 50.07956 19.82523 1391 ft 102 kts 330°
2026-05-07 17:53 50.08204 19.81553 1122 ft 105 kts 258°
2026-05-07 17:53 50.08059 19.80484 930 ft 97 kts 256°
2026-05-07 17:53 50.07921 19.79525 793 ft 77 kts 255°
2026-05-07 17:53 50.07826 19.79083 789 ft 23 kts 204°
2026-05-07 17:54 50.07701 19.79103 791 ft 9 kts 169°
2026-05-07 17:54 50.07656 19.79120 794 ft 5 kts 169°
2026-05-07 17:54 50.07618 19.79194 794 ft 14 kts 79°
2026-05-07 17:54 50.07642 19.79368 794 ft 19 kts 77°
2026-05-07 17:55 50.07677 19.79607 794 ft 26 kts 76°
2026-05-07 17:55 50.07711 19.79865 794 ft 6 kts 89°
2026-05-07 17:55 50.07650 19.79894 794 ft 12 kts 169°
2026-05-07 17:55 50.07608 19.79969 794 ft 17 kts 79°
2026-05-07 17:56 50.07633 19.80146 794 ft 10 kts 75°
2026-05-07 17:56 50.07657 19.80195 794 ft 7 kts 308°
2026-05-07 17:56 50.07707 19.80160 795 ft 2 kts 346°